Change the Weather History Date:

Monday, April 22, 2013

  Actual Average Record
Temperature  
Mean Temperature 55 °F -  
Max Temperature 72 °F 68 °F 90 °F (1963)
Min Temperature 39 °F 51 °F 38 °F (1959)
Degree Days  
Heating Degree Days 10    
Growing Degree Days 5 (Base 50)    
Moisture  
Dew Point 40 °F    
Average Humidity 54    
Maximum Humidity 83    
Minimum Humidity 33    
Precipitation  
Precipitation 0.00 in - - ()
Sea Level Pressure  
Sea Level Pressure 30.14 in    
Wind  
Wind Speed 6 mph (SSE)    
Max Wind Speed 16 mph    
Max Gust Speed 25 mph    
Visibility 10 miles    
Events      
Averages and records for this station are not official NWS values.
T = Trace of Precipitation, MM = Missing Value Source: NWS Daily Summary

Daily Weather History Graph

Daily Weather History Graph

Search for Another Location

Airport or City:

Trip Planner

Search our weather history database for the weather conditions in past years. The results will help you decide how hot, cold, wet, or windy it might be!

Date:

Astronomy

Apr. 22, 2013 Rise Set
Actual Time 6:14 AM CDT 7:44 PM CDT
Civil Twilight 5:46 AM CDT 8:12 PM CDT
Nautical Twilight 5:13 AM CDT 8:45 PM CDT
Astronomical Twilight 4:37 AM CDT 9:21 PM CDT
Moon 4:35 PM CDT (4/22) 4:06 AM CDT (4/22)
Length of Visible Light 14h 25m
Length of Day
13h 29m
Waxing Gibbous, 88% of the Moon is Illuminated
Apr 22
Waxing Gibbous
Apr 25
Full
May 2
Last Quarter
May 9
New
May 17
First Quarter

Hourly Weather History & Observations

Time (CDT) Temp. Windchill Dew Point Humidity Pressure Visibility Wind Dir Wind Speed Gust Speed Precip Events Conditions
12:53 AM 48.0 °F - 37.0 °F 66% 30.27 in 10.0 mi SE 6.9 mph - N/A   Clear
1:53 AM 48.9 °F - 36.0 °F 61% 30.27 in 10.0 mi SSE 4.6 mph - N/A   Clear
2:53 AM 46.9 °F - 37.9 °F 71% 30.25 in 10.0 mi ESE 3.5 mph - N/A   Clear
3:53 AM 46.0 °F 43.9 °F 36.0 °F 68% 30.24 in 10.0 mi SE 4.6 mph - N/A   Clear
4:53 AM 42.1 °F - 36.0 °F 79% 30.24 in 10.0 mi Calm Calm - N/A   Clear
5:53 AM 39.9 °F - 35.1 °F 83% 30.23 in 10.0 mi Calm Calm - N/A   Clear
6:53 AM 41.0 °F - 36.0 °F 82% 30.23 in 10.0 mi Calm Calm - N/A   Clear
7:53 AM 48.9 °F - 37.0 °F 64% 30.23 in 10.0 mi SSE 4.6 mph - N/A   Clear
8:53 AM 54.0 °F - 37.0 °F 53% 30.23 in 10.0 mi SSE 6.9 mph - N/A   Clear
9:53 AM 59.0 °F - 39.0 °F 48% 30.21 in 10.0 mi SSE 8.1 mph - N/A   Clear
10:53 AM 62.1 °F - 42.1 °F 48% 30.20 in 10.0 mi SSE 6.9 mph - N/A   Clear
11:53 AM 66.0 °F - 43.0 °F 43% 30.19 in 10.0 mi SSE 9.2 mph - N/A   Clear
12:53 PM 69.1 °F - 42.1 °F 38% 30.15 in 10.0 mi SSE 8.1 mph - N/A   Clear
1:53 PM 69.1 °F - 42.1 °F 38% 30.12 in 10.0 mi ESE 10.4 mph - N/A   Clear
2:53 PM 70.0 °F - 41.0 °F 35% 30.09 in 10.0 mi SSE 12.7 mph 24.2 mph N/A   Clear
3:53 PM 70.0 °F - 39.9 °F 33% 30.05 in 10.0 mi SSE 15.0 mph 25.3 mph N/A   Clear
4:53 PM 71.1 °F - 42.1 °F 35% 30.01 in 10.0 mi SSE 16.1 mph 24.2 mph N/A   Clear
5:53 PM 69.1 °F - 41.0 °F 36% 30.01 in 10.0 mi SSE 11.5 mph 19.6 mph N/A   Clear
6:53 PM 66.0 °F - 43.0 °F 43% 30.00 in 10.0 mi SSE 8.1 mph 17.3 mph N/A   Clear
7:53 PM 64.0 °F - 44.1 °F 48% 30.00 in 10.0 mi SSE 8.1 mph - N/A   Clear
8:53 PM 63.0 °F - 45.0 °F 52% 30.02 in 10.0 mi SSE 6.9 mph - N/A   Clear
9:53 PM 62.1 °F - 46.0 °F 56% 30.02 in 10.0 mi SSE 5.8 mph - N/A   Mostly Cloudy
10:53 PM 61.0 °F - 46.0 °F 58% 30.02 in 10.0 mi SSE 4.6 mph - N/A   Scattered Clouds
11:53 PM 61.0 °F - 46.0 °F 58% 30.03 in 10.0 mi SSE 4.6 mph - N/A   Mostly Cloudy